Location: ?
(35.4214°N, 139.3011°E)
Time: 22:28:44
(UTC+00:00)

Cosmos 2237 Rocket - Pass Details

Date: 14 July 2020
Orbit: 834 x 850 km, 71.0° (Epoch: 10 August)

Event Time Altitude Azimuth Distance (km) Brightness Sun altitude
Rises 11:24:47 0° 204° (SSW) 3,394 5.2 -15.3°
Reaches altitude 10° 11:27:13 10° 206° (SSW) 2,463 4.5 -15.7°
Maximum altitude 11:32:53 76° 291° (WNW) 877 2.4 -16.5°
Drops below altitude 10° 11:38:35 10° 18° (NNE) 2,481 5.0 -17.4°
Sets 11:41:03 0° 20° (NNE) 3,420 5.7 -17.7°
